Tracking 25710 objects as of 5-Jul-2022
HD Live streaming from Space Station
objects crossing your sky now

FENGYUN 1C DEB

Track FENGYUN 1C DEB now!
10-day predictions


NORAD ID: 33673
Int'l Code: 1999-025DFJ
Perigee: 846.2 km
Apogee: 1,009.0 km
Inclination: 99.4 °
Period: 103.4 minutes
Semi major axis: 7298 km
RCS: 0.0036 m2 (small)
Launch date: May 10, 1999
Source: People's Republic of China (PRC)
Launch site: Taiyaun Space Center, China (TSC)

Note: This is SATELLITE DEBRIS
aabbcc
Your satellite tracking list
Your tracking list is empty




NASA's NSSDC Master Catalog

Two Line Element Set (TLE):
1 33673U 99025DFJ 22185.51570782  .00000011  00000-0  42713-4 0  9993
2 33673  99.4392 195.1519 0111516  20.3394 130.6091 13.92341583723884
Source of the keplerian elements: AFSPC